{"data":{"norad_id":64581,"epoch":"2026-09-21T22:01:58.517760Z","epoch_age_seconds":55128,"freshness":"FRESH","line1":"1 64581U 25135BF  26264.91803840  .00001798  00000+0  16681-3 0  9992","line2":"2 64581  97.7820  18.9733 0003717  45.2291 314.9232 14.95681527 68377","mean_motion":14.95681527,"eccentricity":0.0003717,"inclination_deg":97.782,"raan_deg":18.9733,"arg_perigee_deg":45.2291,"mean_anomaly_deg":314.9232,"bstar":0.00016681,"rev_number":6837,"period_min":96.277180269005,"perigee_km":577.67172298429,"apogee_km":582.84459394509,"semimajor_km":6958.3951584647,"source":"CELESTRAK","updated_at":"2026-09-22T09:00:29.853780Z"}}